Location: Derby
(52.9213°N, 1.4761°W)
Time: 16:11:38
(UTC+01:00)

Vanguard 1 - Pass Details

Date: 19 May 2025
Orbit: 649 x 3822 km, 34.3° (Epoch: 14 June)

Event Time Altitude Azimuth Distance (km) Brightness Sun altitude
Rises 22:49:30 0° 260° (W) 5,587 14.2 -11.6°
Reaches altitude 10° 22:55:36 10° 241° (WSW) 3,866 13.1 -12.1°
Maximum altitude 23:00:22 15° 211° (SSW) 2,919 12.2 -12.5°
Enters shadow 23:03:36 11° 182° (S) 2,825 11.9 -12.7°
Drops below altitude 10° 23:04:06 10° 178° (S) 2,864 - -12.7°
Sets 23:07:31 0° 154° (SSE) 3,453 - -13.0°
